Location: Bonn
(50.7330°N, 7.1000°E)
Time: 06:03:33
(UTC+01:00)

Daily predictions for brighter satellites

Satellite Brightness Start Highest point End
(mag) Time Altitude Azimuth Time Altitude Azimuth Time Altitude Azimuth
MOS 1 4.3 17:38:18 10° SSE 17:43:57 77° ENE 17:49:40 10° NNW
Cosmos 1515 Rocket 3.7 17:39:56 10° N 17:44:26 86° W 17:48:53 10° S
ATLAS 3B R/B 3.9 17:38:14 10° WNW 17:44:27 29° N 17:50:25 10° NE
Cosmos 2084 3.2 17:41:09 10° SW 17:45:00 71° SE 17:48:47 10° NE
Thor Agena Rocket 4.1 17:40:42 10° NNE 17:45:39 40° E 17:50:31 10° SSE
MSX 3.8 17:40:47 10° SSE 17:46:27 68° ENE 17:52:10 10° N
Cosmos 1726 2.1 17:42:47 10° N 17:46:35 70° ENE 17:50:21 10° SSE
Timation 1 Rocket 4.4 17:41:21 10° NNW 17:47:25 76° ENE 17:53:26 10° SE
Lacrosse 5 rocket 3.4 17:46:49 10° WNW 17:50:04 28° SW 17:53:26 10° SSE
Cosmos 1461 4.4 17:47:06 10° SSE 17:50:11 20° ESE 17:53:12 10° ENE
Meteor 2-10 4.0 17:48:49 10° N 17:53:53 61° ENE 17:59:04 10° SSE
Cosmos 2369 Rocket 3.4 17:50:11 10° NNW 17:54:30 22° NE 17:58:47 10° E
SPOT 3 Rocket 3.6 17:50:04 10° SSE 17:55:14 86° ENE 18:00:27 10° NNW
Cosmos 2237 Rocket 2.4 17:50:55 10° S 17:56:24 58° ESE 18:01:58 10° NE
CZ-4 R/B 4.4 17:52:20 10° SSE 17:56:27 68° ENE 18:00:35 10° N
USA 215 3.3 17:49:57 10° E 17:56:27 68° NNE 18:02:57 10° WNW
Cosmos 1455 3.3 17:55:00 10° NNE 17:58:09 24° ENE 18:01:17 10° SE
Cosmos 1674 3.6 17:54:50 10° SSW 17:58:35 52° WNW 18:02:24 10° N
Cosmos 1242 Rocket 4.2 17:57:59 10° NNE 17:59:47 13° ENE 18:01:36 10° E
Blok-2BL 4.1 17:57:12 10° NNW 18:00:12 31° NE 18:03:10 10° E
MONITOR-E 4.4 17:57:13 10° SSE 18:00:16 49° ENE 18:03:22 10° N
Cosmos 1500 Rocket 3.5 17:58:09 10° S 18:02:30 84° E 18:06:55 10° NNE
Meteor 1-27 4.3 17:58:21 10° N 18:04:12 75° ENE 18:10:03 10° SSE
Cosmos 1328 3.7 18:01:13 10° S 18:05:09 77° E 18:09:08 10° NNE
SL-16 R/B 3.0 18:00:40 10° SSE 18:05:37 32° ESE 18:10:36 10° NE
Cosmos 1634 Rocket 4.2 18:00:12 10° NNW 18:06:24 77° W 18:12:32 10° S
Sich 1 4.3 18:04:06 10° SE 18:07:30 22° E 18:10:56 10° NE
FREGAT/IRIS 4.2 18:06:45 10° ESE 18:08:46 17° ENE 18:10:49 10° NNE
COSMOS 2428 3.5 18:03:27 10° SW 18:09:00 51° NW 18:14:36 10° NNE
Cosmos 1763 Rocket 4.4 18:06:07 10° SW 18:11:08 48° WNW 18:16:07 10° NNE
Cosmos 2297 3.8 18:08:19 10° NNW 18:14:03 84° WSW 18:19:48 10° SSE
Cosmos 540 Rocket 3.4 18:09:31 10° SSW 18:14:41 78° ESE 18:19:53 10° NNE
Lacrosse 5 2.6 18:10:42 10° WNW 18:15:30 41° N 18:19:29 14° ENE
Cosmos 1703 3.9 18:13:22 10° SSE 18:16:55 35° E 18:20:29 10° NNE
Cosmos 1300 3.6 18:14:42 10° NNW 18:18:28 53° W 18:22:12 10° S
Cosmos 1633 Rocket 4.1 18:15:19 10° SE 18:18:53 25° E 18:22:28 10° NNE
Cosmos 44 3.4 18:16:36 10° SW 18:21:49 89° NW 18:26:31 11° NE
IDEFIX/ARIANE 42P 3.8 18:18:51 10° S 18:23:52 46° W 18:28:56 10° NNW
SJ-6B 3.6 18:20:38 10° SE 18:24:21 34° ENE 18:28:07 10° N
CENTAUR R/B 3.2 18:18:49 10° WSW 18:25:05 54° NW 18:32:13 10° NE
CZ-4 R/B 3.3 18:23:24 10° SSW 18:26:56 32° W 18:30:31 10° NNW
METEOR-M 4.3 18:22:29 10° SE 18:27:37 49° ENE 18:32:46 10° N
FENGYUN 3A 4.4 18:24:35 10° ESE 18:29:13 31° ENE 18:33:53 10° N
ALOS 3.1 18:27:04 10° ESE 18:31:00 28° ENE 18:34:58 10° N
SL-16 R/B 4.4 18:28:07 10° WNW 18:31:18 15° NNW 18:34:32 10° N
USA 116 3.9 18:28:20 10° N 18:31:28 54° WNW 18:34:29 10° SSW
NOAA 12 4.1 18:28:23 10° SE 18:33:30 57° ENE 18:38:41 10° N
CZ-2C R/B 4.2 18:31:40 10° SSW 18:36:07 34° W 18:40:28 10° NNW
Cosmos 1862 Rocket 4.4 18:33:24 10° N 18:37:11 27° ENE 18:40:55 10° SE
USA 229 DEB 4.5 18:32:19 10° S 18:38:13 32° ESE 18:42:02 19° ENE
USA 229 4.5 18:32:26 10° S 18:38:19 32° ESE 18:42:05 19° ENE
Cosmos 2360 Rocket 4.2 18:34:27 10° W 18:38:43 22° NW 18:43:01 10° NNE
Cosmos 2151 3.4 18:35:08 10° SSW 18:39:18 63° WNW 18:43:29 10° N
Cosmos 1707 Rocket 3.4 18:35:35 10° N 18:39:58 83° E 18:44:18 10° SSE
ATLAS 5 CENTAUR R/B 3.1 18:34:58 10° NW 18:40:03 33° NNE 18:43:10 21° ENE
Cosmos 2084 Rocket 3.5 18:37:27 10° NW 18:41:07 43° NE 18:42:54 25° E
COSMO-SKYMED 1 2.5 18:38:35 10° NNE 18:42:56 68° ESE 18:47:15 10° S
Meteor 1-28 Rocket 3.3 18:39:33 11° NNE 18:43:03 48° E 18:46:40 10° S
Aureole 2 Rocket 3.0 18:39:17 10° SSW 18:43:12 73° WNW 18:47:26 10° NNE
SL-14 R/B 4.1 18:39:55 10° SSW 18:43:48 54° WNW 18:47:47 10° N
Cosmos 1484 Rocket 3.7 18:40:55 10° S 18:44:48 54° W 18:48:47 10° NNW
Cosmos 1980 4.1 18:39:52 10° SW 18:45:31 64° WNW 18:51:11 10° NNE
Cosmos 1340 Rocket 2.9 18:45:46 10° SSW 18:49:42 77° WNW 18:53:38 10° N
CZ-4C R/B 3.5 18:46:10 10° NW 18:52:04 34° NNE 18:55:33 23° ENE
Cosmos 1666 Rocket 3.5 18:51:11 10° S 18:55:30 64° E 18:59:53 10° NNE
Cosmos 1943 Rocket 3.1 18:52:36 10° NNW 18:57:18 27° NE 18:58:18 26° ENE
Cosmos 1869 3.2 18:55:08 10° N 18:59:11 67° ENE 19:03:13 10° SSE
Abrixas 2.9 18:57:26 10° WSW 19:00:16 45° S 19:00:33 43° SSE
Lacrosse 4 Rocket 1.7 18:56:49 10° NW 19:00:52 64° WSW 19:04:52 10° SSE
Cosmos 2219 Rocket 3.4 18:56:01 10° WSW 19:01:14 38° NW 19:06:29 10° NNE
Cosmos 1933 Rocket 4.3 19:03:04 10° SSE 19:06:22 33° ESE 19:06:22 33° ESE
Resurs 1-3 3.9 19:07:15 35° ESE 19:08:24 43° ENE 19:12:34 10° N
Resurs 01 Rocket 1.7 19:05:49 10° SE 19:10:08 53° ENE 19:14:29 10° N
Cosmos 1603 4.1 19:05:18 10° S 19:10:27 39° ESE 19:11:40 34° E
Aureole 1 Rocket 4.1 19:04:41 10° S 19:10:30 61° ESE 19:18:01 10° NNE
Cosmos 2333 Rocket 3.4 19:05:56 10° WSW 19:11:14 40° NW 19:16:35 10° NNE
Cosmos 1626 2.3 19:09:13 10° SSW 19:12:58 72° WNW 19:16:19 13° N
Iridium 4 Rocket 3.0 19:09:14 10° SSE 19:13:29 57° E 19:16:58 14° NNE
Spot 2 Rocket 3.4 19:09:10 10° SSE 19:14:07 60° ENE 19:19:05 10° N
DMSP B5D1-3 4.4 19:09:02 10° NNE 19:14:10 89° W 19:19:17 10° SSW
Cosmos 2056 Rocket 4.0 19:09:30 10° NNW 19:14:17 36° NE 19:14:32 36° ENE
Nadezhda 4 Rocket 3.9 19:10:05 10° S 19:16:22 86° E 19:22:45 10° N
FengYun 1-2 T 4.1 19:12:10 10° SSE 19:17:41 72° ENE 19:23:11 10° NNW
Cosmos 921 Rocket 3.8 19:14:23 10° N 19:17:34 34° NNE 19:17:34 34° NNE
Cosmos 1624 Rocket 4.4 19:13:44 10° NNW 19:18:50 42° ENE 19:19:26 41° ENE
Cosmos 2026 Rocket 4.2 19:14:20 10° SSE 19:20:05 42° E 19:25:46 10° NNE
Cosmos 304 Rocket 4.4 19:18:22 10° SW 19:23:05 54° WNW 19:27:00 15° NNE
Cosmos 1470 Rocket 3.6 19:24:22 10° S 19:28:04 54° SE 19:28:04 54° SE
Cosmos 1184 Rocket 3.3 19:25:40 10° SSW 19:28:58 60° WNW 19:29:27 52° NW
Cosmos 1461 3.2 19:24:55 10° SW 19:29:00 60° NW 19:29:58 45° N
HJ-1C 4.0 19:32:39 52° NNW 19:32:39 52° NNW 19:35:23 10° NNW
Cosmos 972 Rocket 4.0 19:27:04 10° NNW 19:32:16 74° ENE 19:35:39 25° SSE
Cosmos 1538 Rocket 4.3 19:27:51 10° SSW 19:33:10 69° WNW 19:37:06 19° NNE
Cosmos 1455 4.0 19:30:30 10° NNW 19:33:55 32° W 19:37:19 10° SSW
Cosmos 1242 Rocket 3.1 19:31:44 10° NNW 19:35:10 54° W 19:37:49 16° S
Cosmos 2242 Rocket 4.3 19:30:57 10° NNW 19:35:16 53° W 19:39:35 10° S
ATLAS 3B R/B 3.4 19:30:43 10° NW 19:37:10 35° NNE 19:38:31 32° NE
Cosmos 1933 4.5 19:34:13 10° N 19:36:31 32° N 19:36:31 32° N
Cosmos 1356 Rocket 4.4 19:34:44 10° SW 19:38:33 43° WNW 19:41:46 14° N
Cosmos 1371 Rocket 3.8 19:33:50 10° NNW 19:39:03 68° ENE 19:39:38 62° ESE
Cosmos 1553 Rocket 4.0 19:33:09 10° N 19:39:12 53° ENE 19:40:19 47° ESE
Cosmos 2369 Rocket 2.0 19:33:45 10° NNW 19:39:28 80° ENE 19:41:27 42° SE
Cosmos 1092 Rocket 4.0 19:33:12 10° S 19:39:34 89° W 19:45:57 10° N
USA 215 3.7 19:34:36 18° SE 19:39:34 60° SW 19:46:03 10° WNW
FREGAT/IRIS 4.4 19:37:28 10° SSW 19:40:16 32° W 19:43:06 10° NNW
Cosmos 2237 Rocket 3.7 19:35:46 10° WSW 19:40:49 33° NW 19:45:21 13° NNE
Cosmos 923 Rocket 3.8 19:35:42 10° SSW 19:40:53 72° ESE 19:41:42 60° NE
Sich 1 4.1 19:40:40 10° SSW 19:44:56 46° WNW 19:49:13 10° N
Spot 1 4.2 19:47:15 67° N 19:47:15 67° N 19:51:03 10° NNW
Cosmos 1680 Rocket 3.5 19:41:49 10° S 19:46:34 62° SE 19:46:34 62° SE
SL-16 R/B 2.9 19:44:01 10° SW 19:49:31 52° NW 19:53:00 22° NNE
Cosmos 1867 3.4 19:48:14 10° NW 19:53:45 87° NE 19:54:18 73° SE
Cosmos 1633 Rocket 4.3 19:52:20 10° SW 19:56:30 40° WNW 20:00:27 11° N
Meteor 2-10 Rocket 4.2 19:51:53 10° N 19:55:05 39° N 19:55:05 39° N
Lacrosse 5 2.2 19:54:10 10° WNW 19:58:42 55° N 19:58:42 55° N
Helios 1A 4.5 20:03:03 29° NNW 20:03:03 29° NNW 20:05:10 10° NNW
Cosmos 2195 Rocket 4.3 19:55:49 10° S 20:01:57 90° E 20:08:11 10° N
Meteor 1-26 Rocket 4.1 20:00:37 10° NNW 20:06:23 89° E 20:06:41 81° SSE
ALOS 3.3 20:03:49 10° S 20:08:16 44° W 20:12:46 10° NNW
FENGYUN 3A 4.4 20:04:04 10° S 20:09:15 50° W 20:14:32 10° NNW
CENTAUR R/B 4.0 20:11:21 10° WNW 20:17:22 31° N 20:19:25 27° NNE
BREEZE-M DEB (TANK) 4.0 20:06:45 10° W 20:20:21 73° SSW 20:20:27 73° S
ATLAS 5 CENTAUR R/B 2.4 20:19:35 10° NW 20:24:45 72° NW 20:24:45 72° NW
USA 229 DEB 3.7 20:21:46 10° SW 20:28:40 75° NW 20:29:31 67° N
USA 229 3.7 20:21:52 10° SW 20:28:45 75° NW 20:29:34 68° N
Cosmos 1655 Rocket 4.3 20:33:31 10° SSW 20:39:51 67° WNW 20:46:11 10° N
Cosmos 1943 Rocket 3.0 20:36:02 10° NNW 20:39:52 45° NW 20:39:52 45° NW
CZ-4C R/B 2.8 20:34:45 10° NW 20:40:45 69° NNW 20:40:45 69° NNW
Resurs 01 Rocket 4.0 20:43:35 10° SW 20:46:55 21° W 20:50:17 10° NW
Cosmos 2369 Rocket 4.4 21:18:51 10° NW 21:22:50 20° W 21:23:20 20° WSW
ATLAS 3B R/B 3.9 21:21:49 10° NW 21:25:47 36° NW 21:25:47 36° NW
